New Braunfels, TX

4:31 PM CDT on October 18, 2017 (GMT -0500)
New Braunfels Municipal

Weather History for KBAZ - March, 2013

Change the Weather History Date:

Wednesday, March 27, 2013

  Actual Average (KRND) Record (KRND)
Temperature  
Mean Temperature 50 °F -  
Max Temperature 69 °F 71 °F 86 °F (2009)
Min Temperature 35 °F 53 °F 38 °F (2013)
Degree Days  
Heating Degree Days 14    
Moisture  
Dew Point 36 °F    
Average Humidity 52    
Maximum Humidity 72    
Minimum Humidity 37    
Precipitation  
Precipitation 0.00 in - - ()
Sea Level Pressure  
Sea Level Pressure 30.24 in    
Wind  
Wind Speed 6 mph (SSE)    
Max Wind Speed 17 mph    
Max Gust Speed 24 mph    
Visibility 10 miles    
Events      
Averages and records for this station are not official NWS values.
T = Trace of Precipitation, MM = Missing Value Source: NWS Daily Summary

Daily Weather History Graph

Daily Weather History Graph

Search for Another Location

Airport or City:

Trip Planner

Search our weather history database for the weather conditions in past years. The results will help you decide how hot, cold, wet, or windy it might be!

Date:

Astronomy

Mar. 27, 2013 Rise Set
Actual Time 7:27 AM CDT 7:47 PM CDT
Civil Twilight 7:03 AM CDT 8:11 PM CDT
Nautical Twilight 6:35 AM CDT 8:39 PM CDT
Astronomical Twilight 6:07 AM CDT 9:08 PM CDT
Moon 8:26 PM CDT (3/27) 7:22 AM CDT (3/27)
Length of Visible Light 13h 08m
Length of Day
12h 20m
Full, 100% of the Moon is Illuminated
Mar 27
Full
Apr 2
Last Quarter
Apr 10
New
Apr 18
First Quarter
Apr 25
Full

Hourly Weather History & Observations

Time (CDT) Temp. Windchill Dew Point Humidity Pressure Visibility Wind Dir Wind Speed Gust Speed Precip Events Conditions
12:51 AM 46.0 °F 43.1 °F 28.0 °F 50% 30.31 in 10.0 mi South 5.8 mph - N/A   Clear
1:51 AM 43.0 °F 41.3 °F 25.0 °F 49% 30.30 in 10.0 mi ESE 3.5 mph - N/A   Clear
2:51 AM 42.1 °F - 26.1 °F 53% 30.29 in 10.0 mi Calm Calm - N/A   Clear
3:51 AM 39.0 °F - 25.0 °F 57% 30.27 in 10.0 mi Calm Calm - N/A   Clear
4:51 AM 37.0 °F - 25.0 °F 62% 30.26 in 10.0 mi Calm Calm - N/A   Clear
5:51 AM 37.0 °F - 27.0 °F 67% 30.27 in 10.0 mi Calm Calm - N/A   Clear
6:51 AM 37.0 °F - 27.0 °F 67% 30.27 in 10.0 mi Calm Calm - N/A   Clear
7:51 AM 35.1 °F 31.0 °F 27.0 °F 72% 30.29 in 10.0 mi NE 4.6 mph - N/A   Partly Cloudy
8:51 AM 46.0 °F - 32.0 °F 58% 30.30 in 10.0 mi Calm Calm - N/A   Mostly Cloudy
9:51 AM 55.9 °F - 36.0 °F 47% 30.31 in 10.0 mi South 8.1 mph - N/A   Partly Cloudy
11:51 AM 64.9 °F - 39.0 °F 39% 30.29 in 10.0 mi South 11.5 mph - N/A   Overcast
12:51 PM 66.0 °F - 39.0 °F 37% 30.27 in 10.0 mi South 15.0 mph 24.2 mph N/A   Mostly Cloudy
1:51 PM 64.9 °F - 41.0 °F 42% 30.25 in 10.0 mi South 17.3 mph - N/A   Overcast
2:51 PM 66.0 °F - 41.0 °F 40% 30.22 in 10.0 mi South 16.1 mph - N/A   Overcast
3:51 PM 66.9 °F - 43.0 °F 42% 30.19 in 10.0 mi South 13.8 mph 24.2 mph N/A   Overcast
5:51 PM 66.9 °F - 45.0 °F 45% 30.16 in 10.0 mi SSE 16.1 mph - N/A   Overcast
6:51 PM 66.0 °F - 45.0 °F 47% 30.15 in 10.0 mi South 13.8 mph - N/A   Overcast
7:51 PM 64.0 °F - 45.0 °F 50% 30.17 in 10.0 mi South 16.1 mph - N/A   Overcast
8:51 PM 63.0 °F - 45.0 °F 52% 30.17 in 10.0 mi South 12.7 mph 18.4 mph N/A   Overcast
9:51 PM 62.1 °F - 46.0 °F 56% 30.18 in 10.0 mi South 12.7 mph - N/A   Overcast
10:51 PM 61.0 °F - 46.9 °F 60% 30.18 in 10.0 mi South 12.7 mph - N/A   Overcast